Location: Caltech
(34.1382°N, 118.1253°W)
Time: 01:24:07
(UTC-07:00)

Iridium 62 - Visible Passes

Search period start: 25 July 2014 00:00
Search period end: 04 August 2014 00:00
Orbit: 776 x 779 km, 86.4° (Epoch: 24 July)

Date Brightness Start Highest point End Pass type
(mag) Time Alt. Az. Time Alt. Az. Time Alt. Az.
25 Jul 7.7 00:43:46 24° NNE 00:43:46 24° NNE 00:46:03 10° NNE visible
25 Jul 8.1 02:24:15 15° NW 02:24:15 15° NW 02:25:38 10° NW visible
26 Jul 8.2 00:10:23 15° NE 00:10:23 15° NE 00:11:44 10° NE visible
26 Jul 7.8 01:50:52 23° NW 01:50:52 23° NW 01:53:05 10° NNW visible
27 Jul 7.6 01:17:28 28° N 01:17:28 28° N 01:19:56 10° N visible
28 Jul 7.7 00:44:05 26° NNE 00:44:05 26° NNE 00:46:22 10° N visible
29 Jul 8.0 00:10:41 19° NE 00:10:41 19° NE 00:12:24 10° NNE visible
29 Jul 8.1 01:51:09 17° NW 01:51:09 17° NW 01:52:42 10° NNW visible
29 Jul 8.3 23:37:16 11° NE 23:37:16 11° NE 23:37:44 10° NE visible
30 Jul 7.8 01:17:45 23° NNW 01:17:45 23° NNW 01:19:52 10° NNW visible
31 Jul 7.7 00:44:20 26° N 00:44:20 26° N 00:46:32 10° N visible
01 Aug 7.9 00:10:55 22° NNE 00:10:55 22° NNE 00:12:50 10° NNE visible
01 Aug 8.4 01:51:23 12° NW 01:51:23 12° NW 01:51:58 10° NW visible
01 Aug 8.2 23:37:30 15° NE 23:37:30 15° NE 23:38:39 10° NNE visible
02 Aug 8.1 01:17:58 18° NNW 01:17:58 18° NNW 01:19:38 10° NNW visible
03 Aug 7.9 00:44:32 24° NNW 00:44:32 24° NNW 00:46:34 10° N visible
